CAPE
0 0 0 0 0 0 3 0 0 3 0 75 47 22 51 163 715 776 837 924 1001 1121 1118 1190 1261 1341 1407 1304 1398 1606 1744 1822 1643 1642 1241 891 126 145 72 25 24 33 24 59
0 0 0 0 0 0 4 9 0 5 0 12 2 0 5 81 412 797 850 866 945 1041 1137 1256 1300 1338 1388 1274 1287 1501 1568 1547 1511 1503 1197 1040 181 79 45 27 6 65 47 59
0 0 0 0 0 0 0 1 0 0 0 0 0 0 0 0 119 447 787 838 898 994 1098 1208 1253 1330 1413 1517 1455 1522 1513 1514 1668 1416 1220 1059 250 31 18 86 257 202 84 110
0 0 0 0 0 0 0 4 0 0 3 2 0 0 0 0 0 13 46 125 416 850 1043 1000 1096 1317 1426 1629 1799 1488 1019 973 1172 1332 1328 1048 665 74 27 260 481 719 504 378
0 0 0 0 0 0 0 0 0 0 0 4 0 0 0 0 0 0 5 48 303 475 738 906 991 1309 1603 2026 1661 469 19 0 106 755 1256 1109 828 89 70 381 700 744 541 480
0 0 0 0 0 0 0 2 0 0 0 0 0 0 9 0 0 0 3 30 119 566 612 821 1265 1728 2075 2310 1745 884 257 131 291 658 1094 1000 302 104 619 676 743 607 416 320
0 0 0 0 0 0 0 0 0 0 0 0 0 0 0 0 9 85 133 21 111 428 682 1244 1776 2312 2741 2628 2170 1428 430 327 751 996 1103 639 351 509 738 624 482 380 321 283
0 0 0 0 0 0 0 0 0 0 0 0 0 0 0 0 812 531 104 36 359 445 550 1086 1537 1358 1261 2580 2681 1864 1294 877 1108 1429 1191 939 735 936 814 431 162 223 309 230
0 0 0 0 0 0 0 0 0 0 0 0 0 0 0 156 1087 720 507 561 640 745 668 821 937 526 383 1284 2233 2279 1331 1554 1704 1347 1087 951 844 880 374 90 107 139 140 153
0 0 0 0 0 0 0 0 0 0 0 0 0 0 0 0 535 1140 702 1020 1190 1209 1150 1037 970 686 219 993 1764 2184 2129 1881 1521 922 852 786 684 267 104 57 67 105 119 154
0 0 0 0 0 0 0 0 0 0 0 0 0 0 2 4 438 1305 1049 1156 1135 832 795 805 604 510 581 896 1385 1487 2064 1768 1173 1021 971 890 427 20 64 68 76 101 107 74
0 0 0 0 0 0 0 0 0 0 0 0 0 0 5 53 515 1052 1304 1290 1354 1387 1381 1082 271 420 276 604 17 666 1498 1623 1264 1152 990 679 99 8 9 14 32 40 25 1
0 0 0 0 0 0 0 0 0 0 0 0 0 0 0 83 946 1201 1711 1507 1478 1636 1253 454 363 366 84 101 484 1087 1465 1632 1266 1090 636 463 245 91 37 6 6 0 0 0
0 0 0 0 0 0 0 0 0 0 0 0 0 0 0 20 286 833 1393 1991 2150 1700 408 628 661 469 679 811 1587 1782 1900 1740 1274 976 600 545 290 215 77 1 0 3 4 9
0 0 0 0 0 0 0 0 0 0 0 6 13 27 59 44 46 210 670 1165 1731 1000 269 1258 872 369 698 1933 1747 1914 1969 1782 1219 863 816 633 275 235 56 16 6 6 35 20
23 8 0 0 0 0 0 0 0 10 5 26 52 110 255 319 219 116 212 415 363 333 1262 2071 1329 1237 1383 1761 2031 2260 1792 1527 1117 928 455 246 306 243 141 100 81 10 0 1
47 65 14 0 21 0 0 287 120 633 724 229 345 474 420 262 150 125 129 217 263 440 1660 2550 2375 1439 1579 1840 1996 2006 1637 1460 1053 755 87 325 405 357 253 132 22 8 0 0
20 45 89 50 20 0 393 625 564 900 834 890 815 654 373 269 222 269 191 204 320 440 2014 2816 2509 2123 1860 2151 2079 1751 1583 1409 1072 213 196 392 464 376 323 271 199 134 86 22
0 4 15 67 19 0 230 335 597 699 956 809 845 486 409 231 280 805 1673 233 671 796 1998 2869 2766 2511 2218 2179 2055 1713 1658 1568 965 252 281 539 616 438 474 462 403 306 233 155
0 0 0 0 0 26 42 496 650 795 478 717 798 521 939 311 211 439 2082 1440 1880 2107 2583 2793 2640 2405 2167 1875 1327 1136 1501 1406 956 415 346 564 735 714 612 534 465 471 410 294
1 0 0 0 0 69 55 194 868 288 271 604 748 499 705 1283 1433 1584 2403 2119 2081 1988 2111 2363 2410 2175 2004 1527 1257 1368 1268 803 773 473 478 631 857 899 818 620 567 571 516 442
9 64 11 0 0 32 33 82 321 193 277 281 442 666 524 459 1209 1757 1662 2090 1663 1264 1144 885 1334 1625 1881 1238 904 891 1244 1228 767 299 607 900 974 898 895 713 653 650 579 489
28 60 120 196 30 124 46 29 31 87 118 124 88 83 103 422 419 444 1324 989 920 571 497 631 316 459 821 1458 1727 1447 1500 1384 1140 664 498 714 1035 1052 955 985 777 696 832 796
27 46 100 50 37 47 37 28 15 26 32 31 33 24 4 0 7 236 265 826 914 621 472 602 661 811 664 902 1146 1303 1420 1302 1218 913 1016 833 814 911 903 822 909 1107 992 886
13 22 20 14 8 0 0 0 0 0 0 0 0 0 0 0 0 0 0 127 424 537 778 860 1013 1068 1220 1194 1198 1260 1342 1247 1166 1086 831 824 785 878 1228 960 1156 1513 1276 1153
7 10 6 4 0 0 0 0 0 0 0 0 0 0 0 0 0 0 0 0 210 375 324 593 592 739 1024 1373 1117 1101 942 745 711 846 806 898 995 1047 1115 913 867 564 495 484
CIN
-0 -0 -0 -0 -0 -0 -2 -0 -0 -2 -0 -106 -71 -99 -136 -132 -259 -316 -357 -389 -343 -286 -225 -155 -84 -76 -69 -58 -240 -206 -134 -119 -85 -37 -47 -53 -212 -247 -268 -275 -294 -154 -76 -31
-0 -0 -0 -0 -0 -0 -0 -4 -0 -6 -0 -105 -34 -0 -166 -85 -326 -277 -264 -304 -307 -271 -222 -172 -100 -75 -82 -60 -301 -198 -154 -127 -89 -43 -52 -63 -57 -257 -274 -199 -42 -191 -212 -137
-0 -0 -0 -0 -0 -0 -0 -2 -0 -0 -0 -0 -0 -0 -0 -0 -393 -299 -280 -278 -266 -210 -189 -144 -127 -91 -71 -361 -309 -239 -197 -106 -50 -85 -77 -50 -47 -300 -285 -133 -89 -75 -165 -97
-0 -0 -0 -0 -0 -0 -0 -5 -0 -0 -1 -9 -0 -0 -0 -0 -37 -302 -322 -314 -398 -258 -170 -143 -142 -392 -390 -348 -276 -98 -56 -27 -35 -78 -64 -47 -36 -5 -101 -66 -43 -32 -30 -37
-0 -0 -0 -0 -0 -0 -0 -0 -0 -0 -0 -4 -0 -0 -0 -0 -0 -0 -296 -316 -665 -529 -248 -125 -174 -413 -384 -253 -195 -152 -176 -0 -110 -118 -53 -59 -58 -29 -230 -74 -38 -23 -39 -35
-0 -0 -0 -0 -0 -0 -0 -30 -10 -0 -0 -0 -0 -0 -25 -0 -0 -0 -114 -216 -554 -466 -295 -476 -412 -363 -288 -115 -143 -54 -61 -58 -91 -114 -60 -71 -132 -102 -37 -44 -45 -38 -28 -27
-0 -0 -0 -0 -0 -0 -0 -0 -0 -0 -0 -0 -0 -0 -0 -0 -106 -208 -339 -145 -245 -461 -638 -484 -357 -262 -168 -76 -99 -80 -43 -38 -112 -79 -71 -67 -61 -87 -22 -33 -46 -58 -56 -28
-0 -0 -0 -0 -0 -0 -0 -0 -0 -0 -0 -0 -0 -0 -0 -0 -459 -550 -426 -507 -822 -853 -631 -474 -343 -150 -84 -277 -191 -96 -35 -52 -34 -84 -68 -80 -51 -20 -13 -32 -57 -60 -57 -37
-0 -0 -0 -0 -0 -0 -0 -0 -0 -0 -0 -0 -0 -0 -0 -223 -380 -361 -743 -797 -720 -571 -547 -493 -372 -48 -50 -82 -204 -195 -84 -57 -131 -82 -121 -96 -47 -8 -48 -88 -80 -73 -67 -73
-0 -0 -0 -0 -0 -0 -0 -0 -0 -0 -0 -0 -0 -0 -0 -0 -224 -295 -608 -525 -477 -447 -395 -363 -231 -102 -135 -284 -245 -188 -111 -32 -60 -149 -146 -113 -28 -74 -143 -97 -71 -49 -43 -44
-0 -0 -0 -0 -0 -0 -0 -0 -0 -0 -0 -0 -0 -0 -52 -56 -199 -358 -207 -405 -325 -239 -192 -174 -77 -54 -483 -216 -143 -210 -104 -72 -139 -139 -97 -72 -67 -293 -209 -132 -100 -70 -32 -37
-0 -0 -0 -0 -0 -0 -0 -0 -0 -0 -0 -0 -0 -0 -81 -113 -183 -202 -272 -249 -218 -130 -67 -78 -780 -565 -294 -118 -29 -51 -40 -76 -123 -152 -115 -111 -160 -287 -216 -170 -98 -74 -68 -3
-0 -0 -0 -0 -0 -0 -0 -0 -0 -0 -0 -0 -0 -0 -0 -183 -130 -100 -221 -187 -132 -73 -27 -132 -593 -472 -204 -515 -57 -73 -42 -95 -137 -144 -192 -164 -178 -224 -211 -46 -105 -0 -0 -0
-0 -0 -0 -0 -0 -0 -0 -0 -0 -0 -0 -11 -0 -0 -0 -248 -113 -49 -304 -170 -109 -133 -184 -135 -51 -601 -501 -458 -224 -51 -89 -110 -150 -152 -177 -148 -174 -191 -233 -37 -6 -114 -48 -37
-0 -0 -0 -0 -0 -0 -0 -0 -0 -0 -0 -37 -13 -37 -41 -40 -213 -80 -168 -215 -233 -266 -171 -70 -56 -40 -145 -165 -189 -127 -73 -122 -137 -155 -141 -166 -219 -174 -238 -222 -125 -107 -103 -88
-58 -96 -0 -0 -0 -0 -0 -3 -20 -73 -80 -89 -64 -56 -103 -371 -404 -64 -224 -135 -102 -236 -124 -36 -46 -50 -103 -202 -158 -71 -121 -117 -129 -120 -232 -293 -218 -162 -172 -153 -132 -122 -0 -102
-79 -60 -89 -0 -137 -0 -0 -160 -222 -267 -360 -124 -121 -182 -526 -254 -167 -551 -124 -182 -404 -666 -100 -65 -95 -58 -77 -59 -121 -95 -71 -116 -143 -218 -455 -279 -209 -200 -194 -168 -188 -167 -0 -0
-44 -72 -61 -74 -80 -0 -192 -210 -288 -236 -217 -254 -288 -200 -139 -160 -466 -456 -205 -428 -536 -592 -96 -135 -120 -191 -178 -143 -140 -87 -56 -55 -149 -266 -371 -258 -204 -182 -190 -169 -121 -95 -112 -78
-0 -6 -68 -59 -90 -0 -152 -141 -221 -211 -185 -185 -288 -191 -542 -92 -407 -455 -377 -288 -495 -469 -240 -139 -85 -91 -129 -81 -117 -106 -64 -77 -153 -200 -326 -219 -182 -170 -134 -137 -123 -94 -82 -70
-0 -0 -0 -10 -0 -77 -131 -112 -99 -121 -145 -144 -131 -231 -284 -494 -243 -373 -176 -333 -258 -220 -170 -118 -87 -96 -91 -117 -177 -291 -115 -117 -148 -162 -233 -199 -113 -148 -97 -109 -113 -111 -70 -35
-44 -0 -0 -0 -0 -261 -370 -247 -109 -97 -137 -120 -103 -189 -193 -185 -182 -170 -64 -120 -101 -56 -57 -135 -133 -117 -85 -158 -162 -172 -64 -120 -187 -183 -193 -171 -94 -88 -85 -64 -79 -83 -93 -58
-98 -65 -108 -0 -0 -57 -180 -155 -77 -189 -89 -82 -69 -92 -194 -157 -130 -82 -82 -36 -53 -51 -94 -118 -132 -138 -117 -245 -289 -276 -177 -38 -34 -221 -180 -114 -71 -73 -81 -66 -61 -56 -44 -32
-39 -62 -115 -93 -184 -111 -215 -99 -79 -52 -53 -46 -50 -46 -110 -87 -97 -88 -98 -169 -81 -80 -335 -358 -410 -365 -260 -238 -109 -120 -114 -107 -56 -50 -215 -109 -55 -53 -63 -43 -57 -50 -18 -13
-15 -19 -129 -27 -30 -23 -32 -43 -34 -20 -24 -29 -27 -29 -44 -0 -250 -136 -69 -151 -156 -207 -299 -302 -266 -224 -200 -269 -217 -186 -83 -125 -90 -83 -73 -104 -94 -75 -70 -66 -69 -19 -8 -9
-2 -8 -7 -6 -7 -0 -0 -0 -0 -0 -0 -0 -0 -0 -0 -0 -0 -0 -12 -341 -176 -171 -142 -152 -161 -156 -172 -206 -156 -118 -112 -110 -114 -77 -137 -115 -75 -84 -47 -55 -28 -0 -1 -1
-2 -1 -1 -0 -0 -0 -0 -0 -0 -0 -0 -0 -0 -0 -0 -0 -0 -0 -0 -0 -205 -127 -175 -72 -66 -91 -57 -30 -60 -101 -115 -128 -115 -112 -130 -89 -60 -39 -26 -33 -18 -40 -58 -66
Wind_Speed
nan nan nan nan nan nan nan nan nan nan nan nan nan nan nan 10 6 13 19 18 19 26 29 27 29 33 34 33 30 29 28 21 17 18 19 18 21 17 nan nan nan nan nan nan
nan nan nan nan nan nan nan nan nan nan nan nan nan nan nan nan 11 18 18 16 20 15 21 29 36 36 38 35 31 30 33 21 18 21 21 23 20 nan nan nan nan nan nan nan
nan nan nan nan nan nan nan nan nan nan nan nan nan nan nan nan 12 7 9 13 16 17 23 28 34 34 37 37 36 29 20 16 14 19 19 23 20 nan nan nan 12 9 nan 10
nan nan nan nan nan nan nan nan nan nan nan nan nan nan nan nan nan nan nan 16 20 20 20 25 30 33 37 43 33 38 31 14 2 13 19 22 25 nan nan 16 14 12 12 9
nan nan nan nan nan nan nan nan nan nan nan nan nan nan nan nan nan nan nan nan 20 26 22 22 23 26 30 34 44 57 nan nan 24 20 23 24 23 nan nan 15 19 17 17 16
nan nan nan nan nan nan nan nan nan nan nan nan nan nan nan nan nan nan nan nan 16 19 22 28 33 38 29 38 40 42 42 35 25 19 21 27 27 23 18 20 21 19 24 21
nan nan nan nan nan nan nan nan nan nan nan nan nan nan nan nan nan nan 8 nan 22 31 28 31 42 42 46 36 56 39 39 27 25 28 27 26 23 25 22 23 23 15 17 21
nan nan nan nan nan nan nan nan nan nan nan nan nan nan nan nan 24 20 16 nan 24 25 25 29 35 42 35 49 59 20 24 17 22 25 28 25 23 22 21 24 20 18 15 17
nan nan nan nan nan nan nan nan nan nan nan nan nan nan nan 30 25 22 24 27 27 28 33 37 27 41 31 39 31 47 18 16 20 22 24 27 20 24 25 nan 15 12 11 12
nan nan nan nan nan nan nan nan nan nan nan nan nan nan nan nan 18 26 28 30 28 28 31 33 42 42 48 53 57 45 15 14 19 18 19 25 22 19 23 nan nan 6 3 4
nan nan nan nan nan nan nan nan nan nan nan nan nan nan nan nan 19 25 28 25 26 29 27 25 30 44 49 50 32 32 5 14 19 20 20 24 22 nan nan nan nan 13 6 nan
nan nan nan nan nan nan nan nan nan nan nan nan nan nan nan nan 16 19 22 24 20 21 27 28 34 39 49 42 nan 23 10 15 21 24 20 21 nan nan nan nan nan nan nan nan
nan nan nan nan nan nan nan nan nan nan nan nan nan nan nan nan 19 17 22 21 23 24 22 26 33 33 nan 22 24 22 11 12 18 19 24 23 24 nan nan nan nan nan nan nan
nan nan nan nan nan nan nan nan nan nan nan nan nan nan nan nan 16 23 19 20 19 19 17 26 29 28 31 17 18 16 17 19 20 19 21 23 24 24 nan nan nan nan nan nan
nan nan nan nan nan nan nan nan nan nan nan nan nan nan nan nan nan 26 26 23 21 16 15 12 27 23 21 15 16 16 12 20 20 20 22 24 24 24 nan nan nan nan nan nan
nan nan nan nan nan nan nan nan nan nan nan nan nan 22 28 22 17 17 23 28 25 20 18 12 14 13 14 17 19 19 18 18 17 18 24 23 24 23 24 25 nan nan nan nan
nan nan nan nan nan nan nan 30 28 35 36 31 28 28 26 20 23 18 22 20 21 15 17 17 20 15 15 17 16 16 14 18 23 26 nan 23 22 26 27 24 nan nan nan nan
nan nan nan nan nan nan 27 33 38 44 43 37 27 25 25 20 17 27 25 25 22 27 24 23 25 26 21 24 23 15 14 11 16 21 22 23 23 24 26 26 21 19 nan nan
nan nan nan nan nan nan 37 37 37 39 38 41 35 33 33 32 33 32 32 29 31 26 23 29 31 32 39 26 29 34 14 13 14 18 20 22 24 22 24 26 25 19 16 14
nan nan nan nan nan nan nan 38 40 42 43 43 47 45 40 40 45 38 39 36 38 41 35 35 37 39 43 39 48 43 13 14 11 15 17 22 22 25 19 22 21 25 23 16
nan nan nan nan nan nan nan 40 43 49 45 46 48 47 43 45 40 37 43 42 43 44 42 40 41 43 45 43 43 42 22 13 14 20 15 21 23 20 17 16 21 23 22 20
nan nan nan nan nan nan nan nan 56 50 48 47 42 39 37 34 33 34 35 35 38 39 43 44 49 50 43 38 39 39 41 33 29 16 13 16 20 23 22 18 20 19 23 21
nan nan 38 40 nan 47 nan nan nan nan 41 39 nan nan 28 26 29 28 27 28 34 36 35 36 48 43 46 47 49 41 26 38 35 19 17 14 16 26 25 20 23 25 27 26
nan nan 37 nan nan nan nan nan nan nan nan nan nan nan nan nan nan 22 24 27 32 32 33 36 42 52 38 35 47 45 37 32 33 24 17 19 11 19 24 24 27 25 27 27
nan nan nan nan nan nan nan nan nan nan nan nan nan nan nan nan nan nan nan 26 29 33 38 37 39 43 48 54 57 57 50 43 37 26 27 25 22 24 29 31 32 31 28 28
nan nan nan nan nan nan nan nan nan nan nan nan nan nan nan nan nan nan nan nan 32 33 39 45 45 47 47 49 51 53 44 35 36 30 31 30 24 28 30 29 33 30 30 29
Wind_Direction
nan nan nan nan nan nan nan nan nan nan nan nan nan nan nan 342 47 38 25 4 336 354 354 346 339 341 350 350 341 346 340 347 350 355 1 17 12 2 nan nan nan nan nan nan
nan nan nan nan nan nan nan nan nan nan nan nan nan nan nan nan 0 21 12 354 345 337 334 333 333 338 349 343 350 341 345 348 10 358 1 355 358 nan nan nan nan nan nan nan
nan nan nan nan nan nan nan nan nan nan nan nan nan nan nan nan 293 331 345 333 334 339 340 331 330 340 337 344 346 337 343 342 360 3 347 345 347 nan nan nan 330 346 nan 294
nan nan nan nan nan nan nan nan nan nan nan nan nan nan nan nan nan nan nan 323 333 327 325 325 328 333 343 341 314 277 239 197 15 28 351 351 343 nan nan 315 313 311 319 302
nan nan nan nan nan nan nan nan nan nan nan nan nan nan nan nan nan nan nan nan 317 332 315 327 311 312 314 310 309 296 nan nan 26 19 353 351 345 nan nan 309 304 294 286 287
nan nan nan nan nan nan nan nan nan nan nan nan nan nan nan nan nan nan nan nan 296 285 266 274 286 302 282 303 311 310 332 47 36 17 3 355 347 352 341 327 309 285 274 263
nan nan nan nan nan nan nan nan nan nan nan nan nan nan nan nan nan nan 292 nan 300 299 298 299 294 301 295 313 318 316 321 19 18 6 1 354 349 348 350 343 323 293 282 250
nan nan nan nan nan nan nan nan nan nan nan nan nan nan nan nan 265 258 276 nan 271 299 316 321 320 313 299 320 330 307 321 345 349 350 350 349 359 342 344 358 329 291 276 251
nan nan nan nan nan nan nan nan nan nan nan nan nan nan nan 269 259 248 245 267 286 317 319 323 319 305 263 303 313 307 307 328 339 341 339 343 353 351 347 nan 341 327 302 253
nan nan nan nan nan nan nan nan nan nan nan nan nan nan nan nan 261 252 259 278 304 323 332 344 341 322 297 307 301 286 286 323 333 338 338 340 358 352 356 nan nan 329 326 223
nan nan nan nan nan nan nan nan nan nan nan nan nan nan nan nan 266 273 279 296 312 326 336 338 314 311 318 302 272 205 248 329 338 340 346 344 356 nan nan nan nan 346 331 nan
nan nan nan nan nan nan nan nan nan nan nan nan nan nan nan nan 275 288 303 304 317 320 327 329 324 320 314 312 nan 128 83 345 351 335 340 344 nan nan nan nan nan nan nan nan
nan nan nan nan nan nan nan nan nan nan nan nan nan nan nan nan 283 300 314 318 327 323 327 327 328 324 nan 352 14 44 31 358 347 342 333 344 347 nan nan nan nan nan nan nan
nan nan nan nan nan nan nan nan nan nan nan nan nan nan nan nan 309 298 310 315 309 306 327 323 321 325 328 353 357 359 4 354 343 337 334 340 343 349 nan nan nan nan nan nan
nan nan nan nan nan nan nan nan nan nan nan nan nan nan nan nan nan 297 300 300 311 318 326 326 332 336 346 319 327 325 350 340 335 330 331 335 338 340 nan nan nan nan nan nan
nan nan nan nan nan nan nan nan nan nan nan nan nan 265 275 279 290 296 295 311 318 334 322 326 337 321 297 295 325 326 339 328 316 332 328 328 330 331 333 338 nan nan nan nan
nan nan nan nan nan nan nan 236 251 257 254 254 258 251 241 231 268 284 301 305 310 334 313 322 335 311 280 294 306 315 325 314 328 322 nan 325 331 329 332 337 nan nan nan nan
nan nan nan nan nan nan 249 240 249 264 255 247 259 251 240 232 241 260 272 294 294 292 302 292 293 286 271 280 283 279 284 304 303 307 320 327 332 332 329 328 335 339 nan nan
nan nan nan nan nan nan 239 245 247 252 259 249 249 250 253 240 256 246 245 268 278 280 281 292 288 281 288 281 287 263 245 272 293 307 315 329 329 329 332 330 328 326 323 335
nan nan nan nan nan nan nan 247 254 262 266 264 261 265 260 251 250 255 240 254 264 269 267 282 274 279 285 278 293 268 236 250 291 291 315 315 330 315 348 341 329 317 312 326
nan nan nan nan nan nan nan 247 258 264 268 266 270 273 268 264 261 251 253 253 256 268 270 272 275 273 275 289 300 303 261 247 236 265 302 308 325 309 319 325 318 324 334 323
nan nan nan nan nan nan nan nan 268 264 264 268 267 266 264 265 258 256 252 255 260 264 271 276 274 263 266 280 292 305 320 274 256 243 269 307 318 305 288 305 311 310 317 325
nan nan 252 254 nan 255 nan nan nan nan 269 269 nan nan 270 269 271 260 259 254 253 257 265 273 276 285 273 263 284 290 294 277 275 268 270 271 296 296 318 318 309 305 312 318
nan nan 245 nan nan nan nan nan nan nan nan nan nan nan nan nan nan 269 262 256 250 250 256 262 268 277 259 254 285 289 282 254 268 273 296 285 303 297 300 304 300 304 309 310
nan nan nan nan nan nan nan nan nan nan nan nan nan nan nan nan nan nan nan 269 268 267 270 273 277 280 282 282 277 282 276 270 257 265 270 283 288 290 291 290 292 294 291 297
nan nan nan nan nan nan nan nan nan nan nan nan nan nan nan nan nan nan nan nan 264 268 271 269 267 269 273 273 278 277 283 254 262 265 265 276 287 295 295 291 288 287 289 291